"2009-11-23 00:00:00",1440286,1.767,72.77,4.869,0.985,5.053,101.6012,3.385,4.494,50.78,0,109.8,13.5,4.15,34.8
"2009-11-23 00:00:30",1440287,2.149,76.96,5.205,1.114,6.323,101.6038,3.392,4.599,50.88,0,109.8,13.5,4.16,39.0
"2009-11-23 00:01:00",1440288,1.968,71.6,6.022,1.09,5.443,101.6041,3.392,4.46,50.79,0,109.8,13.5,4.16,33.6
"2009-11-23 00:01:30",1440289,2.363,73.69,5.93,1.27,6.348,101.6058,3.397,4.632,50.92,0,109.8,13.5,4.16,35.7
"2009-11-23 00:02:00",1440290,2.317,72.66,7.874,1.346,6.839,101.6087,3.404,4.663,50.72,0,109.8,13.5,4.17,34.7
"2009-11-23 00:02:30",1440291,2.048,74.11,7.308,1.187,6.23,101.6093,3.406,4.591,50.3,0,109.8,13.5,4.17,36.1
"2009-11-23 00:03:00",1440292,2.342,75.69,6.711,1.285,6.489,101.6034,3.391,4.565,50.07,0,109.8,13.5,4.15,37.7
"2009-11-23 00:03:30",1440293,1.63,72.1,1.481,0.212,4.506,101.5879,3.351,4.479,49.91,0,109.7,13.53,4.11,34.1
"2009-11-23 00:04:00",1440294,2.103,75.92,2.592,0.512,4.756,101.5848,3.343,4.417,50.18,0,109.7,13.5,4.11,37.9
"2009-11-23 00:04:30",1440295,3.118,80.5,6.886,1.273,7.2,101.5859,3.346,4.655,50.79,0,109.7,13.5,4.11,42.5
"2009-11-23 00:05:00",1440296,4.139,84.6,5.657,1.117,8.6,101.5871,3.349,4.607,51,0,109.7,13.51,4.11,46.6
"2009-11-23 00:05:30",1440297,3.268,81,6.403,1.249,6.555,101.5882,3.352,4.582,51.15,0,109.7,13.51,4.12,43.0
"2009-11-23 00:06:00",1440298,4.015,82.7,6.301,1.232,7.362,101.5894,3.355,4.643,51.31,0,109.7,13.5,4.12,44.7
"2009-11-23 00:06:30",1440299,3.911,76.65,6.122,1.19,5.592,101.5928,3.364,4.425,51.11,0,109.7,13.5,4.13,38.7
"2009-11-23 00:07:00",1440300,3.424,73.06,4.865,0.746,4.807,101.5866,3.348,4.471,51.22,0,109.7,13.5,4.11,35.1
"2009-11-23 00:07:30",1440301,4.065,72.85,5.51,1.194,5.601,101.5787,3.328,4.518,51.41,0,109.7,13.5,4.09,34.8
"2009-11-23 00:08:00",1440302,5.38,80.7,5.875,1.013,8.18,101.5716,3.31,4.584,51.48,0,109.7,13.5,4.07,42.7
"2009-11-23 00:08:30",1440303,5.154,84.4,5.853,1.142,8.16,101.5637,3.289,4.544,51.28,0,109.7,13.5,4.05,46.4
"2009-11-23 00:09:00",1440304,5.032,83.7,5.201,1.036,7.874,101.5609,3.282,4.515,51.06,0,109.8,13.5,4.05,45.7
"2009-11-23 00:09:30",1440305,3.777,78.8,5.911,1.095,6.02,101.5609,3.282,4.454,50.9,0,109.7,13.5,4.05,40.8
"2009-11-23 00:10:00",1440306,3.02,74.04,1.375,0.1,4.628,101.5609,3.282,4.398,50.68,0,109.7,13.53,4.05,36.0
"2009-11-23 00:10:30",1440307,4.139,77.58,6.404,1.222,6.899,101.5609,3.282,4.463,50.58,0,109.7,13.5,4.05,39.6
"2009-11-23 00:11:00",1440308,4.448,81,6.542,1.091,8.32,101.5609,3.282,4.537,50.62,0,109.7,13.5,4.05,43.0
"2009-11-23 00:11:30",1440309,4.711,81.1,5.88,1.145,8.08,101.5536,3.263,4.514,50.56,0,109.7,13.5,4.03,43.1
"2009-11-23 00:12:00",1440310,4.468,75.61,6.21,1.168,7.268,101.5485,3.25,4.446,50.6,0,109.7,13.5,4.01,37.6
"2009-11-23 00:12:30",1440311,4.039,63.32,7.742,1.317,6.379,101.5326,3.21,4.476,50.77,0,109.7,13.5,3.97,25.3
"2009-11-23 00:13:00",1440312,3.508,53.15,6.996,1.201,5.554,101.5287,3.2,4.414,51.34,0,109.7,13.51,3.96,15.2
"2009-11-23 00:13:30",1440313,3.902,51.84,5.999,1.324,6.317,101.527,3.196,4.45,51.86,0,109.7,13.51,3.96,13.8
"2009-11-23 00:14:00",1440314,4.248,47.47,6.225,1.208,6.707,101.527,3.196,4.486,52.12,0,109.7,13.51,3.96,9.5
"2009-11-23 00:14:30",1440315,4.063,44.56,6.334,1.231,6.205,101.527,3.196,4.424,52.28,0,109.7,13.51,3.96,6.6
"2009-11-23 00:15:00",1440316,3.651,44.18,7.114,1.176,4.819,101.5264,3.194,4.383,52.32,0,109.7,13.51,3.96,6.2
"2009-11-23 00:15:30",1440317,4.741,50.52,5.854,1.125,7.105,101.5131,3.16,4.466,52.45,0,109.7,13.51,3.92,12.5
"2009-11-23 00:16:00",1440318,3.187,43.63,3.169,0.631,4.018,101.4945,3.113,4.37,52.51,0,109.7,13.51,3.88,5.6
"2009-11-23 00:16:30",1440319,3.841,50.81,6.365,1.159,5.244,101.4936,3.11,4.298,52.56,0,109.7,13.51,3.87,12.8
"2009-11-23 00:17:00",1440320,4.738,60.72,5.876,1.14,7.638,101.4919,3.106,4.425,52.73,0,109.7,13.51,3.87,22.7
"2009-11-23 00:17:30",1440321,3.766,61.15,5.383,1.162,6.07,101.4744,3.061,4.321,52.42,0,109.7,13.51,3.82,23.2
"2009-11-23 00:18:00",1440322,4.132,67.24,8.69,1.272,6.37,101.4637,3.034,4.315,52.28,0,109.7,13.51,3.80,29.2
"2009-11-23 00:18:30",1440323,4.597,79.65,6.837,1.199,7.168,101.4648,3.037,4.349,52.05,0,109.7,13.51,3.80,41.7
"2009-11-23 00:19:00",1440324,4.133,76.77,7.652,1.185,6.401,101.468,3.045,4.246,51.48,0,109.7,13.51,3.81,38.8
"2009-11-23 00:19:30",1440325,4.485,80.1,6.454,1.303,7.077,101.4644,3.036,4.247,51.38,0,109.7,13.51,3.80,42.1
"2009-11-23 00:20:00",1440326,4.802,82.7,6.517,1.2,7.772,101.4565,3.016,4.306,51.38,0,109.7,13.51,3.78,44.7
"2009-11-23 00:20:30",1440327,4.701,79.58,6.812,1.218,6.749,101.4429,2.981,4.235,51.28,0,109.7,13.52,3.74,41.6
"2009-11-23 00:21:00",1440328,4.361,70.33,5.48,1.2,5.6,101.4418,2.978,4.22,51.49,0,109.7,13.51,3.74,32.3
"2009-11-23 00:21:30",1440329,4.73,72.91,6.01,1.247,6.942,101.4475,2.993,4.301,52,0,109.7,13.52,3.76,34.9
"2009-11-23 00:22:00",1440330,4.503,70.82,7.606,1.246,6.907,101.4507,3.001,4.242,51.97,0,109.7,13.52,3.76,32.8
"2009-11-23 00:22:30",1440331,4.182,72.61,8.68,1.203,6.368,101.4507,3.001,4.27,52.03,0,109.7,13.52,3.76,34.6
"2009-11-23 00:23:00",1440332,4.872,83,5.006,1.098,7.995,101.4482,2.994,4.225,51.71,0,109.7,13.52,3.76,45.0
"2009-11-23 00:23:30",1440333,4.361,74.4,6.537,1.246,6.778,101.4318,2.953,4.181,51.53,0,109.7,13.52,3.72,36.4
"2009-11-23 00:24:00",1440334,3.427,68.99,5.009,1.039,4.903,101.4208,2.925,4.062,51.44,0,109.7,13.52,3.69,31.0
"2009-11-23 00:24:30",1440335,4.423,74.31,6.176,1.189,7.429,101.4202,2.923,4.235,51.57,0,109.7,13.52,3.69,36.3
"2009-11-23 00:25:00",1440336,4.243,73.84,6.245,1.236,7.333,101.4211,2.925,4.221,51.56,0,109.7,13.52,3.69,35.8
"2009-11-23 00:25:30",1440337,3.943,75.25,6.622,1.279,6.621,101.4222,2.928,4.022,51.4,0,109.7,13.52,3.69,37.2
"2009-11-23 00:26:00",1440338,4.429,75.63,6.051,1.161,7.26,101.4234,2.931,4.14,51.53,0,109.7,13.52,3.69,37.6
"2009-11-23 00:26:30",1440339,4.315,76.96,5.766,1.111,7.343,101.4245,2.934,4.185,51.59,0,109.7,13.52,3.70,39.0
"2009-11-23 00:27:00",1440340,2.719,63.98,1.739,0.441,3.796,101.4245,2.934,3.958,51.37,0,109.7,13.52,3.70,26.0
"2009-11-23 00:27:30",1440341,4.053,65.31,6.789,1.284,6.46,101.4189,2.92,4.196,51.75,0,109.7,13.52,3.68,27.3
"2009-11-23 00:28:00",1440342,4.548,63.07,5.78,1.069,7.575,101.4129,2.905,4.175,51.92,0,109.7,13.52,3.67,25.1
"2009-11-23 00:28:30",1440343,3.856,53.64,8.8,1.267,6.021,101.407,2.889,3.994,51.98,0,109.7,13.52,3.65,15.6
"2009-11-23 00:29:00",1440344,3.717,44.82,5.707,1.175,5.936,101.4005,2.873,4.1,52.39,0,109.7,13.52,3.63,6.8
"2009-11-23 00:29:30",1440345,3.42,39.89,6.853,1.257,5.856,101.3923,2.852,4.061,52.59,0,109.7,13.53,3.61,1.9
"2009-11-23 00:30:00",1440346,2.024,31.9,1.655,0.158,3.14,101.3917,2.85,3.933,52.74,0,109.7,13.56,3.61,353.9
"2009-11-23 00:30:30",1440347,2.976,35.04,5.929,1.223,5.035,101.3914,2.85,4.039,53.02,0,109.7,13.53,3.61,357.0
"2009-11-23 00:31:00",1440348,3.723,36.63,6.383,1.117,6.633,101.3793,2.819,4.088,53.19,0,109.7,13.53,3.58,358.6
"2009-11-23 00:31:30",1440349,3.621,36.1,7.15,1.237,6.056,101.3597,2.769,3.992,53.14,0,109.7,13.53,3.53,358.1
"2009-11-23 00:32:00",1440350,3.101,34.88,6.454,1.237,4.31,101.3578,2.764,4.004,53.1,0,109.7,13.53,3.53,356.9
"2009-11-23 00:32:30",1440351,4.22,42.03,5.85,1.1,6.55,101.3524,2.75,4.027,53.15,0,109.7,13.53,3.51,4.0
"2009-11-23 00:33:00",1440352,2.663,38.62,2.038,0.086,3.559,101.3255,2.681,3.936,53.01,0,109.7,13.57,3.44,0.6
"2009-11-23 00:33:30",1440353,3.711,48.26,5.176,1.257,5.433,101.3238,2.677,3.899,52.86,0,109.7,13.53,3.44,10.3
"2009-11-23 00:34:00",1440354,3.708,51.81,7.755,1.24,6.088,101.3128,2.649,3.94,52.74,0,109.7,13.53,3.41,13.8
"2009-11-23 00:34:30",1440355,3.142,53.64,5.978,1.224,5.929,101.2907,2.593,3.823,52.49,0,109.7,13.53,3.35,15.6
"2009-11-23 00:35:00",1440356,2.186,51.75,0.26,0.474,4.288,101.2899,2.59,3.825,52.45,0,109.7,13.53,3.35,13.8
"2009-11-23 00:35:30",1440357,4.013,58.64,7.031,1.089,7.677,101.2899,2.59,3.933,52.58,0,109.7,13.53,3.35,20.6
"2009-11-23 00:36:00",1440358,2.759,46.33,5.771,1.076,4.688,101.2822,2.571,3.802,52.63,0,109.7,13.53,3.33,8.3
"2009-11-23 00:36:30",1440359,2.77,43.64,4.891,1.098,4.501,101.259,2.512,3.734,52.7,0,109.7,13.53,3.27,5.6
"2009-11-23 00:37:00",1440360,2.869,35.35,7.091,1.088,3.864,101.2559,2.504,3.704,52.88,0,109.7,13.54,3.26,357.4
"2009-11-23 00:37:30",1440361,3.952,37.48,6.902,1.144,5.656,101.2557,2.503,3.813,53.19,0,109.7,13.54,3.26,359.5
"2009-11-23 00:38:00",1440362,3.631,35.12,6.525,1.248,4.86,101.2418,2.468,3.76,53.3,0,109.7,13.54,3.23,357.1
"2009-11-23 00:38:30",1440363,4.429,38.32,5.833,1.144,6.207,101.222,2.417,3.808,53.39,0,109.7,13.54,3.18,0.3
"2009-11-23 00:39:00",1440364,4.325,38.62,6.47,1.212,6.021,101.2107,2.388,3.799,53.47,0,109.7,13.54,3.15,0.6
"2009-11-23 00:39:30",1440365,3.957,38.49,6.69,1.264,5.083,101.1886,2.332,3.629,53.44,0,109.7,13.54,3.09,0.5
"2009-11-23 00:40:00",1440366,4.164,39.97,6.875,1.205,4.88,101.1815,2.314,3.631,53.62,0,109.7,13.53,3.07,2.0
"2009-11-23 00:40:30",1440367,3.857,43.96,6.243,1.266,5.886,101.1541,2.244,3.701,53.86,0,109.6,13.54,3.00,6.0
"2009-11-23 00:41:00",1440368,4.055,48.1,5.632,1.216,6.554,101.1535,2.243,3.57,53.79,0,109.7,13.53,3.00,10.1
"2009-11-23 00:41:30",1440369,4.229,50.47,5.888,1.082,7.439,101.1386,2.204,3.605,53.73,0,109.7,13.53,2.96,12.5
"2009-11-23 00:42:00",1440370,4.117,50.05,5.376,1.053,7.297,101.1219,2.162,3.553,53.58,0,109.7,13.53,2.92,12.0
"2009-11-23 00:42:30",1440371,2.617,42,5.168,0.93,4.54,101.1247,2.169,3.435,53.48,0,109.7,13.53,2.93,4.0
"2009-11-23 00:43:00",1440372,2.851,40.46,5.68,1.121,4.245,101.1132,2.14,3.331,53.58,0,109.7,13.53,2.90,2.5
"2009-11-23 00:43:30",1440373,3.976,45.39,6.12,1.106,6.886,101.0948,2.093,3.424,53.9,0,109.7,13.53,2.85,7.4
"2009-11-23 00:44:00",1440374,2.907,36.2,7.344,1.356,4.869,101.0954,2.094,3.265,53.96,0,109.7,13.54,2.85,358.2
"2009-11-23 00:44:30",1440375,4.613,37.09,4.527,0.764,7.483,101.0968,2.098,3.48,54.44,0,109.7,13.54,2.86,359.1
"2009-11-23 00:45:00",1440376,4.571,31.83,6.33,1.221,5.61,101.0841,2.065,3.397,54.58,0,109.7,13.54,2.82,353.8
"2009-11-23 00:45:30",1440377,5.015,33.38,5.893,1.12,6.004,101.0691,2.027,3.337,54.7,0,109.7,13.54,2.79,355.4
"2009-11-23 00:46:00",1440378,4.038,30.1,6.738,1.067,4.121,101.0663,2.02,3.279,54.92,0,109.7,13.54,2.78,352.1
"2009-11-23 00:46:30",1440379,4.463,34.09,6.444,1.235,4.598,101.0516,1.982,3.271,55.32,0,109.7,13.54,2.74,356.1
"2009-11-23 00:47:00",1440380,4.48,31.18,6.606,1.217,4.69,101.0355,1.941,3.331,55.69,0,109.7,13.54,2.70,353.2
"2009-11-23 00:47:30",1440381,6.057,40.8,2.967,0.685,7.162,101.0273,1.92,3.396,55.93,0,109.7,13.54,2.68,2.8
"2009-11-23 00:48:00",1440382,4.998,36.11,6.204,1.178,5.775,101.0052,1.864,3.295,55.98,0,109.7,13.54,2.62,358.1
"2009-11-23 00:48:30",1440383,5.382,37.15,6.41,1.193,5.174,100.9919,1.83,3.152,56.22,0,109.7,13.54,2.59,359.1
"2009-11-23 00:49:00",1440384,4.505,34.8,6.466,1.19,4.471,100.9736,1.783,3.105,56.35,0,109.7,13.54,2.54,356.8
"2009-11-23 00:49:30",1440385,4.632,34.17,6.162,1.235,4.497,100.9569,1.741,3.039,56.28,0,109.7,13.54,2.50,356.2
"2009-11-23 00:50:00",1440386,5.516,38.37,7.156,1.449,5.35,100.9419,1.703,3.156,56.68,0,109.7,13.55,2.46,0.4
"2009-11-23 00:50:30",1440387,6.579,43.91,3.323,0.781,7.221,100.9145,1.633,3.141,56.66,0,109.7,13.55,2.39,5.9
"2009-11-23 00:51:00",1440388,5.927,40.9,5.362,1.126,6.269,100.9088,1.618,3.092,56.63,0,109.6,13.55,2.38,2.9
"2009-11-23 00:51:30",1440389,5.569,39.2,6.253,1.161,5.83,100.8825,1.551,2.98,56.63,0,109.7,13.55,2.31,1.2
"2009-11-23 00:52:00",1440390,4.905,36.13,5.795,1.203,4.747,100.8746,1.531,2.881,56.62,0,109.6,13.54,2.29,358.1
"2009-11-23 00:52:30",1440391,4.595,34.33,6.134,1.164,4.265,100.8517,1.472,2.756,56.63,0,109.6,13.55,2.23,356.3
"2009-11-23 00:53:00",1440392,4.805,33.23,6.574,1.187,4.849,100.8429,1.45,2.782,56.86,0,109.6,13.55,2.21,355.2
"2009-11-23 00:53:30",1440393,5.303,37.09,5.062,1.054,6.151,100.8293,1.415,2.822,57.22,0,109.6,13.55,2.17,359.1
"2009-11-23 00:54:00",1440394,5.34,36.21,4.972,1.007,6.98,100.8095,1.365,2.861,57.55,0,109.6,13.55,2.12,358.2
"2009-11-23 00:54:30",1440395,5.142,33.28,6.164,1.189,5.853,100.8127,1.373,2.73,57.71,0,109.6,13.55,2.13,355.3
"2009-11-23 00:55:00",1440396,4.509,28.56,6.45,1.136,4.309,100.8056,1.355,2.527,57.82,0,109.7,13.55,2.11,350.6
"2009-11-23 00:55:30",1440397,3.718,23.74,3.477,0.485,3.087,100.7813,1.293,2.618,58.19,0,109.6,13.58,2.05,345.7
"2009-11-23 00:56:00",1440398,5.298,35.33,4.662,0.949,6.376,100.7804,1.291,2.66,58.47,0,109.6,13.55,2.05,357.3
"2009-11-23 00:56:30",1440399,4.787,33.83,5.719,1.18,6.573,100.781,1.292,2.633,58.69,0,109.6,13.55,2.05,355.8
"2009-11-23 00:57:00",1440400,5.239,37.96,3.739,0.855,7.819,100.7804,1.291,2.695,58.73,0,109.6,13.55,2.05,360.0
"2009-11-23 00:57:30",1440401,4.678,32.98,6.195,1.177,5.983,100.7804,1.291,2.592,58.51,0,109.6,13.55,2.05,355.0
"2009-11-23 00:58:00",1440402,4.151,32.69,6.284,1.309,5.018,100.7779,1.284,2.447,58.14,0,109.6,13.54,2.04,354.7
"2009-11-23 00:58:30",1440403,3.753,33.34,6.131,1.078,5.002,100.7731,1.272,2.516,58.13,0,109.6,13.55,2.03,355.3
"2009-11-23 00:59:00",1440404,4.472,33.72,6.378,1.164,6.157,100.7708,1.266,2.561,58.16,0,109.6,13.55,2.02,355.7
"2009-11-23 00:59:30",1440405,5.099,32.39,6.386,1.084,6.492,100.7685,1.26,2.573,58.42,0,109.6,13.55,2.02,354.4
"2009-11-23 01:00:00",1440406,5.633,31.12,5.969,0.993,6.708,100.7671,1.257,2.549,58.57,0,109.6,13.55,2.01,353.1
"2009-11-23 01:00:30",1440407,5.229,29.28,6.181,1.246,5.842,100.7654,1.252,2.572,58.8,0,109.6,13.55,2.01,351.3
"2009-11-23 01:01:00",1440408,5.031,27.62,6.159,1.231,4.287,100.7632,1.247,2.393,58.88,0,109.6,13.55,2.00,349.6
"2009-11-23 01:01:30",1440409,5.29,33.13,5.821,1.196,5.64,100.7583,1.234,2.459,58.82,0,109.6,13.55,1.99,355.1
"2009-11-23 01:02:00",1440410,5.051,36.2,5.624,1.093,5.895,100.7527,1.22,2.562,58.41,0,109.6,13.56,1.98,358.2
"2009-11-23 01:02:30",1440411,4.541,34.06,6.443,1.203,4.593,100.7473,1.206,2.476,57.85,0,109.6,13.56,1.96,356.1
"2009-11-23 01:03:00",1440412,5.181,38.86,6.105,1.234,5.712,100.747,1.205,2.546,57.6,0,109.6,13.56,1.96,0.9
"2009-11-23 01:03:30",1440413,5.726,40.29,6.105,1.125,6.036,100.747,1.205,2.531,57.5,0,109.6,13.56,1.96,2.3
"2009-11-23 01:04:00",1440414,4.916,35.82,5.497,1.132,4.419,100.747,1.205,2.417,57.37,0,109.6,13.56,1.96,357.8
"2009-11-23 01:04:30",1440415,5.832,40.96,5.359,1.142,5.73,100.7408,1.19,2.508,57.44,0,109.6,13.56,1.95,3.0
"2009-11-23 01:05:00",1440416,5.757,40.9,5.69,1.1,6.065,100.7201,1.137,2.466,57.4,0,109.6,13.56,1.89,2.9
"2009-11-23 01:05:30",1440417,5.171,38.91,6.12,1.129,5.428,100.7131,1.119,2.455,57.48,0,109.6,13.56,1.87,0.9
"2009-11-23 01:06:00",1440418,5.29,40.44,5.674,1.124,6.214,100.7131,1.119,2.464,57.67,0,109.6,13.56,1.87,2.4
"2009-11-23 01:06:30",1440419,4.783,37.78,6.339,1.19,5.428,100.7131,1.119,2.368,57.84,0,109.6,13.56,1.87,359.8
"2009-11-23 01:07:00",1440420,3.829,32.98,6.023,1.011,4.095,100.7131,1.119,2.376,58.03,0,109.6,13.56,1.87,355.0
"2009-11-23 01:07:30",1440421,4.364,37.47,6.098,1.108,5.333,100.7091,1.109,2.391,58.22,0,109.6,13.56,1.86,359.5
"2009-11-23 01:08:00",1440422,4.048,36.75,5.887,1.146,5.748,100.7043,1.096,2.422,58.4,0,109.6,13.57,1.85,358.8
"2009-11-23 01:08:30",1440423,3.95,35.24,6.366,1.246,5.546,100.6964,1.076,2.374,58.43,0,109.6,13.56,1.83,357.2
"2009-11-23 01:09:00",1440424,3.971,34.65,6.649,1.192,5.481,100.6902,1.06,2.349,58.61,0,109.6,13.57,1.82,356.6
"2009-11-23 01:09:30",1440425,3.374,32.65,6.985,1.227,5.292,100.6822,1.04,2.358,59.04,0,109.6,13.57,1.80,354.6
"2009-11-23 01:10:00",1440426,2.516,24.06,1.343,0.135,2.65,100.6791,1.032,2.231,59.21,0,109.6,13.6,1.79,346.1
"2009-11-23 01:10:30",1440427,4.116,34.9,5.661,1.086,5.867,100.6797,1.034,2.339,59.22,0,109.6,13.57,1.79,356.9
"2009-11-23 01:11:00",1440428,3.156,33.85,6.424,1.209,4.296,100.68,1.034,2.286,58.85,0,109.6,13.57,1.79,355.9
"2009-11-23 01:11:30",1440429,3.25,35.36,6.036,1.226,4.06,100.6825,1.041,2.288,58.44,0,109.6,13.57,1.80,357.4
"2009-11-23 01:12:00",1440430,4.449,42.11,5.519,1.034,5.834,100.684,1.045,2.341,58.32,0,109.6,13.57,1.80,4.1
"2009-11-23 01:12:30",1440431,4.31,39.93,6.453,1.247,5.171,100.6865,1.051,2.363,58.19,0,109.6,13.57,1.81,1.9
"2009-11-23 01:13:00",1440432,4.626,40.41,5.7,1.16,4.2,100.6814,1.038,2.103,57.87,0,109.6,13.57,1.79,2.4
"2009-11-23 01:13:30",1440433,5.123,43.32,6.488,1.268,5.057,100.6665,1,2.297,58.05,0,109.6,13.57,1.76,5.3
"2009-11-23 01:14:00",1440434,5.371,44.92,5.895,1.171,5.753,100.662,0.988,2.3,58.11,0,109.6,13.56,1.74,6.9
"2009-11-23 01:14:30",1440435,5.118,42.18,6.055,1.27,5.431,100.664,0.994,2.324,58.33,0,109.6,13.56,1.75,4.2
"2009-11-23 01:15:00",1440436,5.678,45.78,5.364,1.063,6.423,100.6634,0.992,2.295,58.42,0,109.6,13.56,1.75,7.8
"2009-11-23 01:15:30",1440437,5.389,44.8,6.728,1.19,5.415,100.6654,0.997,2.176,58.5,0,109.6,13.56,1.75,6.8
"2009-11-23 01:16:00",1440438,4.857,43.52,6.632,1.131,4.441,100.6662,0.999,2.149,58.59,0,109.6,13.56,1.75,5.5
"2009-11-23 01:16:30",1440439,5.661,48.49,5.541,1.114,5.909,100.6682,1.004,2.271,58.73,0,109.6,13.56,1.76,10.5
"2009-11-23 01:17:00",1440440,5.321,44.9,6.692,1.153,5.05,100.6671,1.002,2.203,58.7,0,109.6,13.56,1.76,6.9
"2009-11-23 01:17:30",1440441,5.797,46.48,5.803,1.15,6.22,100.6632,0.991,2.237,58.79,0,109.6,13.57,1.75,8.5
"2009-11-23 01:18:00",1440442,5.445,44.04,5.498,1.104,6.6,100.6566,0.975,2.246,58.84,0,109.6,13.57,1.73,6.0
"2009-11-23 01:18:30",1440443,4.747,39.28,5.755,1.217,5.43,100.6561,0.973,2.19,58.92,0,109.6,13.57,1.73,1.3
"2009-11-23 01:19:00",1440444,4.415,36,6.214,1.069,5.203,100.6567,0.975,2.147,59.12,0,109.6,13.57,1.73,358.0
"2009-11-23 01:19:30",1440445,3.918,34.18,6.537,1.194,5.629,100.6547,0.97,2.183,59.39,0,109.6,13.57,1.73,356.2
"2009-11-23 01:20:00",1440446,3.68,33.03,6.192,1.291,5.517,100.6578,0.978,2.225,59.58,0,109.6,13.57,1.73,355.0
"2009-11-23 01:20:30",1440447,3.759,31.6,6.719,1.255,4.814,100.6561,0.974,2.117,59.5,0,109.6,13.57,1.73,353.6
"2009-11-23 01:21:00",1440448,4.043,32.47,6.271,1.287,5.534,100.6572,0.976,2.156,59.5,0,109.6,13.57,1.73,354.5
"2009-11-23 01:21:30",1440449,3.824,34.77,7.021,1.272,5.04,100.6564,0.974,2.178,59.49,0,109.6,13.57,1.73,356.8
"2009-11-23 01:22:00",1440450,3.139,33.36,5.933,1.006,3.795,100.6592,0.981,2.11,59.3,0,109.6,13.58,1.74,355.4
"2009-11-23 01:22:30",1440451,4.317,38.49,5.872,1.208,4.459,100.6601,0.984,2.139,59.29,0,109.6,13.58,1.74,0.5
"2009-11-23 01:23:00",1440452,4.877,41.67,6.621,1.263,5.47,100.6592,0.981,2.25,59.43,0,109.6,13.58,1.74,3.7
"2009-11-23 01:23:30",1440453,5.547,44.53,5.773,1.058,6.574,100.6604,0.984,2.285,59.58,0,109.6,13.58,1.74,6.5
"2009-11-23 01:24:00",1440454,5.609,44.63,5.527,1.057,6.584,100.6641,0.994,2.192,59.51,0,109.6,13.58,1.75,6.6
"2009-11-23 01:24:30",1440455,4.638,39.88,6.314,1.24,5.877,100.6672,1.002,2.236,59.49,0,109.6,13.58,1.76,1.9
"2009-11-23 01:25:00",1440456,3.504,34.26,6.008,1.12,4.112,100.6692,1.007,2.048,59.23,0,109.6,13.58,1.76,356.3
"2009-11-23 01:25:30",1440457,3.546,35.94,6.309,1.139,4.992,100.668,1.004,2.235,59.44,0,109.6,13.58,1.76,357.9
"2009-11-23 01:26:00",1440458,4.423,38.78,5.067,1.114,6.316,100.6728,1.016,2.227,59.49,0,109.6,13.58,1.77,0.8
"2009-11-23 01:26:30",1440459,4.168,35.46,5.991,1.152,5.982,100.6757,1.023,2.201,59.48,0,109.6,13.58,1.78,357.5
"2009-11-23 01:27:00",1440460,3.665,33.58,6.516,1.199,5.627,100.6774,1.028,2.269,59.53,0,109.6,13.58,1.78,355.6
"2009-11-23 01:27:30",1440461,4.076,36.29,6.489,1.16,5.645,100.6785,1.031,2.189,59.41,0,109.6,13.58,1.79,358.3
"2009-11-23 01:28:00",1440462,3.488,33.37,6.608,1.205,4.646,100.6788,1.031,2.097,59.32,0,109.6,13.58,1.79,355.4
"2009-11-23 01:28:30",1440463,2.521,27.46,1.68,0.131,2.523,100.6793,1.033,2.045,59.22,0,109.6,13.61,1.79,349.5
"2009-11-23 01:29:00",1440464,4.181,35.5,6.045,1.16,6.011,100.6793,1.033,2.244,59.37,0,109.6,13.58,1.79,357.5
"2009-11-23 01:29:30",1440465,3.81,34.96,6.08,1.273,5.857,100.6793,1.033,2.265,59.28,0,109.6,13.58,1.79,357.0
"2009-11-23 01:30:00",1440466,3.608,35.81,6.916,1.279,4.596,100.6793,1.033,2.17,59.07,0,109.6,13.58,1.79,357.8
"2009-11-23 01:30:30",1440467,5.094,43.01,5.588,1.009,6.437,100.6793,1.033,2.215,58.94,0,109.6,13.57,1.79,5.0
"2009-11-23 01:31:00",1440468,4.464,39.98,6.556,1.276,4.578,100.6793,1.033,2.141,58.73,0,109.6,13.57,1.79,2.0
"2009-11-23 01:31:30",1440469,4.777,41.56,5.867,1.212,4.981,100.6793,1.033,2.173,58.57,0,109.6,13.57,1.79,3.6
"2009-11-23 01:32:00",1440470,5.04,42.19,6.092,1.243,5.404,100.6793,1.033,2.242,58.64,0,109.6,13.58,1.79,4.2
"2009-11-23 01:32:30",1440471,5.926,48.5,2.773,0.771,7.353,100.6793,1.033,2.29,58.69,0,109.6,13.58,1.79,10.5
"2009-11-23 01:33:00",1440472,5.671,46.94,5.426,1.098,6.522,100.6793,1.033,2.186,58.51,0,109.6,13.58,1.79,8.9
"2009-11-23 01:33:30",1440473,5.641,47.25,5.956,1.167,5.797,100.6793,1.033,2.221,58.39,0,109.6,13.57,1.79,9.2
"2009-11-23 01:34:00",1440474,5.758,47.58,6.159,1.23,4.764,100.6793,1.033,2.103,57.97,0,109.6,13.58,1.79,9.6
"2009-11-23 01:34:30",1440475,6.522,50.54,5.741,1.07,6.046,100.6793,1.033,2.289,57.6,0,109.6,13.58,1.79,12.5
"2009-11-23 01:35:00",1440476,6.431,47.84,6.055,1.179,5.763,100.6793,1.033,2.227,57.16,0,109.6,13.59,1.79,9.8
"2009-11-23 01:35:30",1440477,6.953,48.03,3.834,1.067,6.588,100.6793,1.033,2.318,57.08,0,109.6,13.59,1.79,10.0
"2009-11-23 01:36:00",1440478,6.425,44.11,5.99,1.211,5.673,100.6793,1.033,2.234,56.8,0,109.6,13.59,1.79,6.1
"2009-11-23 01:36:30",1440479,5.666,43.19,5.968,1.189,6.398,100.6793,1.033,2.254,56.88,0,109.6,13.59,1.79,5.2
"2009-11-23 01:37:00",1440480,4.165,34.91,6.411,1.154,4.53,100.6793,1.033,2.097,57.1,0,109.6,13.59,1.79,356.9
"2009-11-23 01:37:30",1440481,4.333,37.29,6.45,1.146,5.725,100.6793,1.033,2.25,57.63,0,109.6,13.59,1.79,359.3
"2009-11-23 01:38:00",1440482,4.51,34.81,5.689,1.12,6.181,100.6793,1.033,2.241,57.76,0,109.6,13.59,1.79,356.8
"2009-11-23 01:38:30",1440483,3.98,29.19,5.86,1.238,4.361,100.6793,1.033,2.111,57.77,0,109.6,13.59,1.79,351.2
"2009-11-23 01:39:00",1440484,4.732,32.76,5.322,1.102,6.48,100.6793,1.033,2.248,57.88,0,109.6,13.59,1.79,354.8
"2009-11-23 01:39:30",1440485,4.413,25.91,6.621,1.192,6.059,100.6793,1.033,2.203,57.8,0,109.6,13.59,1.79,347.9
"2009-11-23 01:40:00",1440486,3.662,18.92,5.819,1.172,5.527,100.6793,1.033,2.162,57.83,0,109.6,13.59,1.79,340.9
"2009-11-23 01:40:30",1440487,3.416,11.87,6.26,1.212,5.157,100.6793,1.033,2.188,58.05,0,109.6,13.59,1.79,333.9
"2009-11-23 01:41:00",1440488,3.521,11.41,6.208,1.203,5.231,100.6793,1.033,2.119,58.21,0,109.6,13.59,1.79,333.4
"2009-11-23 01:41:30",1440489,2.065,1.635,3.212,0.313,3.186,100.6793,1.033,2.108,58.37,0,109.6,13.62,1.79,323.6
"2009-11-23 01:42:00",1440490,3.763,8.54,6.2,1.107,6.566,100.6793,1.033,2.249,58.65,0,109.6,13.59,1.79,330.5
"2009-11-23 01:42:30",1440491,3.222,18.66,7.574,1.232,5.976,100.6793,1.033,2.217,58.72,0,109.6,13.59,1.79,340.7
"2009-11-23 01:43:00",1440492,3.64,23.45,5.582,1.036,3.622,100.6793,1.033,2.246,58.63,0,109.6,13.59,1.79,345.5
"2009-11-23 01:43:30",1440493,4.971,32.59,5.968,1.262,4.374,100.6793,1.033,2.153,57.63,0,109.6,13.59,1.79,354.6
"2009-11-23 01:44:00",1440494,5.244,31.96,6.566,1.269,4.722,100.6793,1.033,2.225,56.76,0,109.6,13.59,1.79,354.0
"2009-11-23 01:44:30",1440495,5.746,33.73,6.147,1.058,5.496,100.6793,1.033,2.286,56.5,0,109.6,13.59,1.79,355.7
"2009-11-23 01:45:00",1440496,5.949,33.94,5.92,0.974,5.99,100.6793,1.033,2.284,56.42,0,109.6,13.59,1.79,355.9
"2009-11-23 01:45:30",1440497,5.818,36.36,5.135,1.042,6.035,100.6793,1.033,2.284,56.44,0,109.6,13.59,1.79,358.4
"2009-11-23 01:46:00",1440498,4.937,34.59,6.793,1.316,4.732,100.6779,1.029,2.247,56.34,0,109.6,13.59,1.78,356.6
"2009-11-23 01:46:30",1440499,5.039,34.33,6.283,1.335,4.764,100.6649,0.996,2.271,56.34,0,109.6,13.58,1.75,356.3
"2009-11-23 01:47:00",1440500,4.774,33.86,6.389,1.151,4.296,100.6573,0.976,2.293,56.35,0,109.6,13.59,1.73,355.9
"2009-11-23 01:47:30",1440501,5.744,38.84,5.897,1.085,5.749,100.6459,0.948,2.264,56.29,0,109.6,13.59,1.70,0.8
"2009-11-23 01:48:00",1440502,5.554,41.18,5.683,1.096,6.076,100.6454,0.946,2.204,56.11,0,109.6,13.59,1.70,3.2
"2009-11-23 01:48:30",1440503,5.354,40.86,6.291,1.248,5.069,100.6454,0.946,2.265,56.11,0,109.6,13.59,1.70,2.9